Content
SEND FEEDBACK

Daily
Averages
Monthly
Summary
French Polynesia

PAPEETE, FRENCH POLYNESIA


Home > Oceania > French Polynesia
Elevation: 7 feet     Latitude: 17 33S     Longitude: 149 36W

WEATHER
 
SELECT A DAY
Number of Records: 208,079;   Date Range: 6/30/96 - 7/20/14
 
SHARE

PRINT THIS DATA

[ ← Previous Day ]
WEATHER ALMANAC - FEBRUARY 20, 2013
[ Next Day → ]
[ °C ]   °F
Weather ElementAverageHighLow
Temperature80 °F84.2 °F (9:00 am)77 °F (1:00 am)
Dewpoint72.2 °F75.2 °F (11:00 am)69.8 °F (6:00 am)
Humidity76.4 %83 % (12:30 am)59 % (2:00 pm)
Barometer29.91 in29.98 in (10:00 pm)29.86 in (2:00 am)
Wind Speed4.3 mph12.7 mph (3:30 pm)
Weather ElementAverage
Visibility7.4 mi
Wind DirectionESE (113.8 °)

Weather ElementTotal
Precipitation---
Cooling Degree Days15.6 (Base 65)
Growing Degree Days30.6 (Base 50)
Averaged from 55 records on February 20, 2013
WEATHER CONDITIONS BREAKOUT
WIND DIRECTION BREAKOUT
WEATHER BY HOUR - FEBRUARY 20, 2013
[ °C ]   °F
Local TimeTemperatureDewpointHumidityBarometerVisibilityWind DirectionWind SpeedGust SpeedPrecipitationEventsConditions
12:30 AM78.8 °F73.4 °F83 %29.89 in6.2 miWSW (250°)4.6 mphScattered Clouds
1:00 AM77.0 °F71.6 °F83 %29.89 in6.2 miSouth (180°)4.6 mphScattered Clouds
1:30 AM77.0 °F71.6 °F83 %29.89 in6.2 miSSW (210°)4.6 mphMostly Cloudy
2:00 AM77.0 °F72.0 °F79 %29.88 in12.0 miSouth (180°)4.6 mphPartly Cloudy
2:00 AM77.0 °F71.6 °F83 %29.86 in6.2 miSouth (180°)4.6 mphMostly Cloudy
2:30 AM77.0 °F71.6 °F83 %29.86 in6.2 miVariable3.5 mphThunderstormScattered Clouds
3:00 AM77.0 °F71.6 °F83 %29.89 in6.2 miEast (90°)5.8 mphThunderstormScattered Clouds
3:30 AM77.0 °F71.6 °F83 %29.86 in6.2 miNE (50°)9.2 mphRainLight Rain
4:00 AM77.0 °F71.6 °F83 %29.86 in6.2 miNE (40°)2.3 mphOvercast
4:30 AM77.0 °F71.6 °F83 %29.86 in6.2 miSE (130°)3.5 mphOvercast
5:00 AM77.0 °F71.0 °F78 %29.88 in37.0 miESE (120°)4.5 mphClear
5:00 AM77.0 °F71.6 °F83 %29.86 in6.2 miVariable2.3 mph
5:30 AM77.0 °F71.6 °F83 %29.89 in6.2 miSouth (170°)8.1 mph
6:00 AM77.0 °F69.8 °F78 %29.89 in6.2 miSouth (180°)5.8 mphMostly Cloudy
6:30 AM77.0 °F71.6 °F83 %29.89 in6.2 miCalmMostly Cloudy
7:00 AM77.0 °F71.6 °F83 %29.92 in6.2 miEast (80°)3.5 mphMostly Cloudy
7:30 AM78.8 °F71.6 °F78 %29.92 in6.2 miEast (80°)4.6 mphMostly Cloudy
8:00 AM80.0 °F74.0 °F76 %29.94 in12.0 miNE (40°)1.2 mphPartly Cloudy
8:00 AM80.6 °F73.4 °F79 %29.92 in6.2 miCalmMostly Cloudy
8:30 AM82.4 °F71.6 °F70 %29.95 in6.2 miVariable2.3 mphMostly Cloudy
9:00 AM84.2 °F71.6 °F66 %29.95 in6.2 miNE (40°)4.6 mphMostly Cloudy
9:30 AM84.2 °F71.6 °F66 %29.95 in6.2 miENE (70°)5.8 mphMostly Cloudy
10:00 AM78.8 °F71.6 °F78 %29.95 in6.2 miEast (90°)6.9 mphMostly Cloudy
10:30 AM80.6 °F73.4 °F79 %29.95 in6.2 miESE (110°)3.5 mphMostly Cloudy
11:00 AM82.0 °F75.0 °F73 %29.95 in12.0 miSSW (200°)6.9 mphPartly Cloudy
11:00 AM82.4 °F75.2 °F79 %29.95 in6.2 miSSW (200°)6.9 mphMostly Cloudy
11:30 AM82.4 °F71.6 °F70 %29.92 in6.2 miWest (270°)3.5 mphMostly Cloudy
12:00 PM82.4 °F71.6 °F70 %29.92 in6.2 miSSW (200°)3.5 mphMostly Cloudy
12:30 PM82.4 °F71.6 °F70 %29.95 in6.2 miSSW (200°)5.8 mphMostly Cloudy
1:00 PM82.4 °F73.4 °F74 %29.92 in6.2 miSouth (190°)6.9 mphMostly Cloudy
1:30 PM82.4 °F71.6 °F70 %29.92 in6.2 miSSW (210°)5.8 mphMostly Cloudy
2:00 PM83.0 °F71.0 °F59 %29.92 in9.0 miWest (260°)1.2 mphMostly Cloudy
2:00 PM82.4 °F71.6 °F70 %29.92 in6.2 miVariable1.2 mphMostly Cloudy
2:30 PM82.4 °F71.6 °F70 %29.89 in6.2 miCalmMostly Cloudy
3:00 PM84.2 °F71.6 °F66 %29.89 in6.2 miENE (60°)4.6 mphMostly Cloudy
3:30 PM80.6 °F69.8 °F70 %29.89 in6.2 miEast (80°)12.7 mphRainLight Rain Showers
4:00 PM80.6 °F71.6 °F74 %29.89 in6.2 miNNE (30°)10.4 mphRainLight Rain Showers
4:30 PM80.6 °F73.4 °F79 %29.89 in6.2 miEast (90°)5.8 mphMostly Cloudy
5:00 PM83.0 °F73.0 °F64 %29.90 in12.0 miESE (110°)2.3 mphRainLight Rain Showers
5:00 PM82.4 °F73.4 °F74 %29.89 in6.2 miVariable2.3 mphMostly Cloudy
5:30 PM84.2 °F73.4 °F70 %29.89 in6.2 miSSW (210°)5.8 mphMostly Cloudy
6:00 PM82.4 °F71.6 °F70 %29.89 in6.2 miVariable1.2 mphMostly Cloudy
6:30 PM82.4 °F73.4 °F74 %29.92 in6.2 miVariable2.3 mphMostly Cloudy
7:00 PM80.6 °F73.4 °F79 %29.92 in6.2 miSW (230°)3.5 mphMostly Cloudy
7:30 PM80.6 °F73.4 °F79 %29.92 in6.2 miSSW (210°)4.6 mphMostly Cloudy
8:00 PM80.0 °F73.0 °F73 %29.95 in12.0 miSouth (170°)5.8 mphPartly Cloudy
8:00 PM80.6 °F73.4 °F79 %29.95 in6.2 miSouth (170°)5.8 mphMostly Cloudy
8:30 PM80.6 °F73.4 °F79 %29.95 in6.2 miSouth (180°)3.5 mphMostly Cloudy
9:00 PM78.8 °F73.4 °F83 %29.95 in6.2 miENE (70°)3.5 mphMostly Cloudy
9:30 PM78.8 °F73.4 °F83 %29.95 in6.2 miCalmRainLight Rain
10:00 PM78.8 °F73.4 °F83 %29.98 in6.2 miEast (80°)3.5 mphRainLight Rain
10:30 PM78.8 °F71.6 °F78 %29.95 in6.2 miVariable1.2 mphMostly Cloudy
11:00 PM78.0 °F72.0 °F76 %29.96 in12.0 miSouth (190°)6.7 mphPartly Cloudy
11:00 PM78.8 °F71.6 °F78 %29.95 in6.2 miSouth (190°)3.5 mphMostly Cloudy
11:30 PM78.8 °F71.6 °F78 %29.95 in6.2 miSouth (170°)3.5 mphMostly Cloudy
Hourly data recorded from NTAA, located miles away from Papeete, French Polynesia







STORIES FROM OUR PARTNERS